Weather History for Mazatlan Airport, Mexico

Change the Weather History Date:

Wednesday, February 8, 2012

  Actual Average Record
Temperature  
Mean Temperature 62 °F -  
Max Temperature 77 °F 78 °F 89 °F (2007)
Min Temperature 48 °F 52 °F 44 °F (2011)
Degree Days  
Heating Degree Days 2    
Growing Degree Days 12 (Base 50)    
Moisture  
Dew Point 49 °F    
Average Humidity 60    
Maximum Humidity 72    
Minimum Humidity 47    
Precipitation  
Precipitation 0.00 in - - ()
Sea Level Pressure  
Sea Level Pressure 29.93 in    
Wind  
Wind Speed 7 mph ()    
Max Wind Speed 18 mph    
Max Gust Speed -    
Visibility 10.8 miles    
Events      
Averages and records for this station are not official NWS values.
T = Trace of Precipitation, MM = Missing Value Source: Averaged Metar Reports

Daily Weather History Graph

Daily Weather History Graph

Search for Another Location

Airport:

Trip Planner

Search our weather history database for the weather conditions in past years. The results will help you decide how hot, cold, wet, or windy it might be!

Date:

Astronomy

Feb. 08, 2012 Rise Set
Actual Time 6:41 AM MST 5:56 PM MST
Civil Twilight 6:18 AM MST 6:20 PM MST
Nautical Twilight 5:51 AM MST 6:46 PM MST
Astronomical Twilight 5:25 AM MST 7:13 PM MST
Moon 7:03 PM MST (2/8) 6:58 AM MST (2/8)
Length of Visible Light 12h 01m
Length of Day
11h 14m
Full, 99% of the Moon is Illuminated
Feb 8
Full
Feb 14
Last Quarter
Feb 21
New
Feb 29
First Quarter
Mar 8
Full

Hourly Weather History & Observations

Time (MST) Temp. Dew Point Humidity Pressure Visibility Wind Dir Wind Speed Gust Speed Precip Events Conditions
12:41 AM 51.8 °F 42.8 °F 71% 29.94 in 8.0 mi North 4.6 mph - N/A   Scattered Clouds
1:40 AM 51.8 °F 42.8 °F 71% 29.93 in 8.0 mi NNE 8.1 mph - N/A   Scattered Clouds
2:43 AM 51.8 °F 42.8 °F 71% 29.93 in 10.0 mi North 6.9 mph - N/A   Mostly Cloudy
3:44 AM 51.8 °F 42.8 °F 71% 29.92 in 10.0 mi North 9.2 mph - N/A   Mostly Cloudy
4:44 AM 51.8 °F 42.8 °F 71% 29.92 in 10.0 mi North 6.9 mph - N/A   Overcast
5:43 AM 48.2 °F 39.2 °F 71% 29.93 in 10.0 mi Calm Calm - N/A   Overcast
6:45 AM 51.8 °F 41.0 °F 67% 29.94 in 12.0 mi North 6.9 mph - N/A   Overcast
7:45 AM 53.6 °F 44.6 °F 72% 29.94 in 14.0 mi NNE 6.9 mph - N/A   Overcast
8:46 AM 60.8 °F 46.4 °F 59% 29.97 in 12.0 mi North 6.9 mph - N/A   Overcast
9:44 AM 66.2 °F 51.8 °F 60% 29.98 in 12.0 mi East 8.1 mph - N/A   Overcast
10:42 AM 69.8 °F 53.6 °F 56% 29.98 in 12.0 mi SE 9.2 mph - N/A   Overcast
11:42 AM 77.0 °F 55.4 °F 47% 29.94 in 12.0 mi SSE 6.9 mph - N/A   Overcast
12:41 PM 75.2 °F 57.2 °F 53% 29.92 in 12.0 mi SW 11.5 mph - N/A   Overcast
1:43 PM 71.6 °F 57.2 °F 60% 29.92 in 12.0 mi WSW 15.0 mph - N/A   Overcast
2:42 PM 73.4 °F 55.4 °F 53% 29.90 in 12.0 mi West 18.4 mph - N/A   Overcast
3:40 PM 73.4 °F 55.4 °F 53% 29.89 in 12.0 mi NW 10.4 mph - N/A   Overcast
4:44 PM 75.2 °F 55.4 °F 50% 29.87 in 12.0 mi NW 10.4 mph - N/A   Mostly Cloudy
5:40 PM 73.4 °F 53.6 °F 50% 29.88 in 10.0 mi West 5.8 mph - N/A   Mostly Cloudy
6:45 PM 66.2 °F 50.0 °F 56% 29.90 in 10.0 mi WSW 8.1 mph - N/A   Mostly Cloudy
7:42 PM 62.6 °F 48.2 °F 59% 29.92 in 10.0 mi WSW 10.4 mph - N/A   Scattered Clouds
8:42 PM 62.6 °F 50.0 °F 63% 29.93 in 10.0 mi WNW 8.1 mph - N/A   Partly Cloudy
9:48 PM 60.8 °F 46.4 °F 59% 29.96 in 10.0 mi WSW 9.2 mph - N/A   Scattered Clouds
10:45 PM 64.4 °F 44.6 °F 49% 29.98 in 10.0 mi NNW 10.4 mph - N/A   Scattered Clouds
11:43 PM 60.8 °F 44.6 °F 55% 29.97 in 10.0 mi NNE 8.1 mph - N/A   Overcast